[[{"header":{"parameterUnit":"m.s-1","parameterCategory":1,"la1":30.2991,"la2":30.254,"lo1":-89.0895,"lo2":-89.0444,"dy":0.0017,"dx":0.0017,"nx":28,"ny":28,"refTime":"2025-12-05T09:00:00:Z","depth":0,"parameterNumber":2,"parameterNumberName":"U-component_of_WINDS"},"data":[0,0,0,0,0,0,0,0,0,0,0,0,0,0,0,0,0,0,0,0,0,0,0,0,0,0,0,0,0,0,0,0,0,0,0,0,0,0,0,0,0,0,0,0,0,0,0,0,0,0,0,0,0,0,0,0,0,0,-3.9529,-3.953,0,-3.9628,-3.9629,-3.963,-3.9545,-3.9542,-3.9538,-3.9535,-3.9638,-3.9643,-3.9649,0,0,0,0,0,0,0,0,0,0,0,0,0,-3.927,-3.9275,-3.9529,-3.9531,-3.9532,-3.9627,-3.9629,-3.963,-3.9546,-3.9541,-3.9537,-3.9533,-3.9636,-3.9643,-3.965,0,0,0,0,0,0,0,0,0,0,0,0,0,-3.9377,-3.9277,-3.9529,-3.9501,-3.95,-3.9627,-3.9629,-3.963,-3.9547,-3.9541,-3.9536,-3.9531,-3.9633,-3.9642,-3.9651,-3.9812,0,0,-3.9678,-3.9682,0,0,0,0,0,0,0,0,-3.9371,-3.9387,-3.9504,-3.9503,-3.9502,-3.9569,-3.9575,-3.9691,-3.9548,-3.9529,-3.9535,-3.9529,-3.9619,-3.9629,-3.9659,-3.9817,-3.9821,-3.9679,-3.9685,-3.9689,-3.9691,0,0,0,0,0,0,0,-3.9364,-3.9382,-3.9568,-3.9506,-3.9504,-3.9484,-3.9493,-3.9597,-3.9602,-3.953,-3.9524,-3.9537,-3.9617,-3.965,-3.9661,-3.9823,-3.9679,-3.9687,-3.9692,-3.9696,-4.0116,-4.0121,0,0,0,0,0,0,-3.9359,-3.9376,-3.9565,-3.9571,-3.9422,-3.9493,-3.9503,-3.9553,-3.9601,-3.9603,-3.9541,-3.9532,-3.9638,-3.965,-3.9664,-3.9854,-3.9688,-3.9697,-3.9702,-4.011,-4.0117,-4.0123,0,0,0,0,0,0,-3.9354,-3.9377,-3.9561,-3.9472,-3.9494,-3.9503,-3.9559,-3.9557,-3.959,-3.9609,-3.961,-3.9574,-3.9634,-3.9651,-3.9775,-3.9857,-3.9701,-3.9709,-4.0103,-4.0112,-4.012,-4.0237,0,0,0,0,0,0,-3.9347,-3.9375,-3.9436,-3.9474,-3.9499,-3.9671,-3.9564,-3.9563,-3.9606,-3.9595,-3.964,-3.9642,-3.9631,-3.9762,-3.9784,-3.9866,-3.9716,-4.0096,-4.0107,-4.0118,-4.0226,-4.0248,-4.0268,0,0,0,0,0,-3.9338,-3.9466,-3.944,-3.9463,-3.9575,-3.9675,-3.969,-3.9673,-3.9613,-3.9674,-3.9686,-3.9641,-3.9845,-3.9776,-3.98,-3.9886,-4.0091,-4.0104,-4.0117,-4.0216,-4.0244,-4.0267,0,0,0,0,0,0,-3.9438,-3.947,-3.9442,-3.9586,-3.9628,-3.9661,-3.9738,-3.9704,-3.9765,-3.9753,-3.9731,-3.9741,-3.9872,-3.9891,-3.9814,-4.0043,-3.9958,-3.9976,-4.0025,-4.0052,-4.0072,-4.0064,-3.9724,0,0,0,0,0,-3.9477,-3.9555,-3.9579,-3.9704,-3.9727,-3.9729,-3.9772,-3.9756,-3.9799,-3.9817,-3.9838,-3.9883,-3.9956,-4.0005,-4.0075,-4.0229,-4.0237,-4.03,-4.0321,-4.0338,-4.0354,-4.0435,-4.0463,-4.0166,-4.0166,-4.0166,0,0,-3.9558,-3.9585,-3.9636,-3.9725,-3.9756,-3.9837,-3.9745,-3.9835,-3.9895,-3.9831,-3.9948,-3.9966,-4.0014,-4.0154,-4.0216,-4.0174,-4.0438,-4.0354,-4.0368,-4.0374,-4.0451,-4.0479,-4.0504,-4.0175,-4.0173,-4.0172,0,0,-3.9747,-3.9776,-3.9882,-3.9915,-3.9963,-3.9964,-3.9989,-4.0027,-4.0036,-4.0153,-4.0107,-4.0178,-4.0306,-4.0342,-4.0377,-4.0579,-4.054,-4.0603,-4.0712,-4.0792,-4.0815,-4.0836,-4.0906,-4.0932,-4.0619,-4.0619,-4.0619,0,-3.9842,-3.9962,-3.9942,-4.0035,-4.0075,-4.002,-4.0127,-4.0161,-4.0229,-4.0259,-4.021,-4.0369,-4.0398,-4.0544,-4.0593,-4.0624,-4.0652,-4.0597,-4.0813,-4.0834,-4.0853,-4.092,-4.0947,-4.0626,-4.0625,-4.0625,-4.0624,0,-4.0075,-4.0159,-4.024,-4.0306,-4.0355,-4.0456,-4.0451,-4.0503,-4.0483,-4.0489,-4.0609,-4.0642,-4.0716,-4.075,-4.0731,-4.0893,-4.0865,-4.0816,-4.0729,-4.0889,-4.0951,-4.0977,-4.0636,-4.0634,-4.0632,-4.063,0,0,-4.0329,-4.0382,-4.0412,-4.0441,-4.049,-4.0554,-4.0652,-4.0724,-4.0769,-4.0818,-4.0899,-4.1009,-4.0963,-4.1002,-4.0988,-4.1058,-4.1215,-4.1,-4.1001,-4.1037,-4.1394,-4.1429,-4.1459,-4.1189,-4.1194,-4.1198,-4.1389,0,-4.0518,-4.0687,-4.0671,-4.0831,-4.0908,-4.0857,-4.0942,-4.0982,-4.099,-4.1057,-4.1066,-4.1143,-4.1078,-4.1101,-4.1169,-4.1181,-4.1286,-4.1168,-4.1264,-4.1267,-4.1251,-4.1492,-4.153,-4.1709,-4.1413,-4.1418,-4.1421,0,-4.0761,-4.0818,-4.0985,-4.1021,-4.1053,-4.1129,-4.1193,-4.1258,-4.1301,-4.1302,-4.1347,-4.132,-4.1419,-4.1331,-4.1466,-4.1386,-4.1425,-4.1437,-4.1444,-4.1451,-4.1352,-4.1504,-4.1765,-4.1792,-4.1459,-4.1456,-4.1454,0,-4.0927,-4.1046,-4.116,-4.1187,-4.1233,-4.1287,-4.1309,-4.1347,-4.1391,-4.1447,-4.1475,-4.1543,-4.158,-4.1633,-4.1625,-4.1563,-4.1763,-4.1675,-4.1765,-4.1766,-4.1808,-4.1805,-4.2078,-4.1837,-4.1837,-4.1836,-4.1835,0,-4.1139,-4.1243,-4.1235,-4.1306,-4.1421,-4.1403,-4.1517,-4.1532,-4.1567,-4.164,-4.1601,-4.167,-4.1657,-4.1726,-4.1721,-4.1833,-4.185,-4.1853,-4.185,-4.1856,-4.1855,-4.1879,-4.1866,-4.1843,-4.1842,-4.184,-4.1839,0,-4.1343,-4.1342,-4.1464,-4.1497,-4.1507,-4.1591,-4.1619,-4.1685,-4.169,-4.1783,-4.1804,-4.1812,-4.1892,-4.1889,-4.198,-4.1977,-4.2114,-4.2097,-4.2098,-4.2094,-4.2184,-4.2175,-4.248,-4.2519,-4.2255,-4.2257,-4.226,0,-4.1477,-4.1556,-4.1597,-4.1642,-4.1667,-4.1741,-4.1785,-4.1771,-4.1818,-4.1874,-4.1934,-4.2009,-4.2069,-4.2198,-4.2213,-4.2282,-4.2266,-4.2368,-4.2276,-4.2278,-4.2265,-4.226,-4.2267,-4.2385,-4.2388,-4.2391,-4.2393,0,-4.1715,-4.171,-4.1775,-4.184,-4.1893,-4.1943,-4.1989,-4.2029,-4.202,-4.2075,-4.2155,-4.2202,-4.2294,-4.2369,-4.2435,-4.2458,-4.2424,-4.2422,-4.2446,-4.2451,-4.2448,-4.2449,-4.2146,-4.2415,-4.2412,-4.2411,-4.241,-4.2409,-4.1887,-4.1953,-4.1992,-4.2065,-4.2098,-4.2142,-4.2206,-4.2219,-4.2285,-4.2358,-4.2346,-4.2435,-4.2477,-4.2562,-4.2591,-4.2661,-4.2625,-4.2661,-4.2669,-4.2678,-4.2687,-4.2439,-4.2673,-4.2673,-4.2672,-4.2672,-4.2671,0,-4.212,-4.2143,-4.221,-4.2275,-4.2333,-4.2296,-4.2345,-4.2395,-4.2474,-4.2515,-4.2574,-4.2666,-4.2739,-4.2759,-4.283,-4.2882,-4.2868,-4.2901,-4.2895,-4.2901,-4.2716,-4.2687,-4.291,-4.291,-4.291,-4.291,-4.291,-4.291,-4.2249,-4.2359,-4.2359,-4.2486,-4.2507,-4.2594,-4.2625,-4.2665,-4.2698,-4.2802,-4.2861,-4.2874,-4.2907,-4.2979,-4.3044,-4.3048,-4.3075,-4.3114,-4.3112,-4.2938,-4.2914,-4.2891,-4.2864,-4.3121,-4.3121,-4.3291,-4.3292,-4.3293]},{"header":{"parameterUnit":"m.s-1","parameterCategory":1,"la1":30.2991,"la2":30.254,"lo1":-89.0895,"lo2":-89.0444,"dy":0.0017,"dx":0.0017,"nx":28,"ny":28,"refTime":"2025-12-05T09:00:00:Z","depth":0,"parameterNumber":3,"parameterNumberName":"V-component_of_WINDS"},"data":[0,0,0,0,0,0,0,0,0,0,0,0,0,0,0,0,0,0,0,0,0,0,0,0,0,0,0,0,0,0,0,0,0,0,0,0,0,0,0,0,0,0,0,0,0,0,0,0,0,0,0,0,0,0,0,0,0,0,0.9379,0.9379,0,0.9353,0.9353,0.9353,0.9322,0.9322,0.9321,0.9321,0.9292,0.9292,0.9291,0,0,0,0,0,0,0,0,0,0,0,0,0,0.9401,0.9401,0.9379,0.9379,0.9379,0.9353,0.9353,0.9352,0.9322,0.9322,0.9321,0.9321,0.9292,0.9292,0.9291,0,0,0,0,0,0,0,0,0,0,0,0,0,0.9385,0.9401,0.9379,0.9361,0.9359,0.9353,0.9353,0.9352,0.9323,0.9322,0.9321,0.9321,0.9292,0.9292,0.9291,0.9301,0,0,0.929,0.9289,0,0,0,0,0,0,0,0,0.9386,0.9384,0.9364,0.9362,0.936,0.934,0.935,0.9335,0.9323,0.9336,0.9321,0.932,0.9308,0.9307,0.9303,0.93,0.9299,0.929,0.9289,0.9289,0.9289,0,0,0,0,0,0,0,0.9387,0.9385,0.9369,0.9363,0.9361,0.9353,0.935,0.9347,0.9326,0.9335,0.9333,0.933,0.9307,0.9304,0.9302,0.9298,0.929,0.9289,0.9289,0.9289,0.9302,0.9303,0,0,0,0,0,0,0.9391,0.9386,0.937,0.9368,0.9371,0.9353,0.935,0.9347,0.9326,0.9323,0.9331,0.9329,0.9305,0.9303,0.9301,0.9311,0.9289,0.9288,0.9288,0.9302,0.9302,0.9303,0,0,0,0,0,0,0.9392,0.939,0.9371,0.9377,0.9373,0.9353,0.9351,0.9347,0.9343,0.9323,0.9319,0.9331,0.9304,0.9302,0.9302,0.931,0.9288,0.9288,0.9301,0.9302,0.9303,0.9333,0,0,0,0,0,0,0.9393,0.939,0.9395,0.9377,0.9373,0.9372,0.9351,0.9347,0.9343,0.934,0.9322,0.9319,0.9304,0.9303,0.9301,0.9309,0.9287,0.93,0.9301,0.9302,0.9331,0.9335,0.9338,0,0,0,0,0,0.9394,0.9403,0.9395,0.9393,0.9378,0.9373,0.9371,0.9354,0.9344,0.9347,0.9334,0.9319,0.931,0.9303,0.9301,0.9309,0.9299,0.9301,0.9302,0.9329,0.9334,0.9338,0,0,0,0,0,0,0.9422,0.9401,0.9391,0.9396,0.9387,0.9368,0.9372,0.9359,0.9352,0.935,0.9328,0.9325,0.9327,0.9318,0.9311,0.9317,0.9302,0.9303,0.9323,0.9328,0.9331,0.9333,0.9287,0,0,0,0,0,0.9429,0.9427,0.9409,0.9414,0.941,0.9392,0.9389,0.9377,0.9366,0.9362,0.9349,0.9338,0.9333,0.933,0.9324,0.9329,0.9325,0.9334,0.9337,0.934,0.9341,0.9344,0.9347,0.9308,0.9308,0.9308,0,0,0.9443,0.9431,0.9431,0.942,0.9411,0.9409,0.9389,0.9388,0.9386,0.9361,0.9361,0.9351,0.9338,0.9341,0.9341,0.9333,0.9351,0.9342,0.9345,0.9344,0.9346,0.9349,0.9353,0.9309,0.9309,0.9309,0,0,0.9467,0.9459,0.9463,0.9455,0.9442,0.943,0.9431,0.9415,0.9407,0.9407,0.9388,0.9385,0.9377,0.9368,0.9362,0.9384,0.937,0.9383,0.9401,0.9403,0.9407,0.9409,0.9417,0.942,0.9384,0.9384,0.9384,0,0.9486,0.9483,0.9466,0.9466,0.9462,0.944,0.9444,0.9437,0.9423,0.942,0.9411,0.94,0.9389,0.939,0.9396,0.9392,0.9392,0.9385,0.9408,0.941,0.9412,0.9419,0.9422,0.9386,0.9386,0.9386,0.9385,0,0.9507,0.9505,0.951,0.9498,0.9494,0.9496,0.9478,0.9476,0.9464,0.9453,0.9452,0.9439,0.943,0.9429,0.9418,0.9429,0.9424,0.9412,0.9396,0.9418,0.9424,0.9427,0.9388,0.9388,0.9387,0.9387,0,0,0.9548,0.9527,0.9529,0.9523,0.9508,0.9506,0.9507,0.9499,0.9497,0.9488,0.9488,0.9482,0.947,0.9464,0.9451,0.9454,0.9472,0.9441,0.944,0.9447,0.9482,0.9491,0.9495,0.9462,0.9463,0.9463,0.9483,0,0.957,0.9571,0.9555,0.956,0.9558,0.9538,0.9539,0.9529,0.9519,0.9515,0.9503,0.9499,0.9485,0.9481,0.9482,0.9469,0.9478,0.9468,0.9461,0.9461,0.9465,0.9498,0.9508,0.9527,0.9486,0.9486,0.9486,0,0.9595,0.9589,0.9594,0.9578,0.9577,0.9578,0.9569,0.9566,0.9555,0.9547,0.9541,0.9526,0.9526,0.9511,0.9509,0.9502,0.9499,0.9492,0.9492,0.9491,0.9475,0.9497,0.9533,0.9536,0.949,0.949,0.949,0,0.9625,0.9617,0.9619,0.9615,0.9597,0.9598,0.9591,0.9579,0.9575,0.9568,0.9565,0.9557,0.9552,0.9546,0.953,0.9521,0.953,0.9514,0.9523,0.9523,0.9525,0.9525,0.9561,0.9524,0.9524,0.9524,0.9524,0,0.965,0.9654,0.9632,0.9633,0.9637,0.9619,0.9622,0.9613,0.9603,0.9601,0.9583,0.9582,0.9561,0.9557,0.9544,0.9545,0.9543,0.9536,0.9532,0.9537,0.9538,0.9534,0.9532,0.9524,0.9524,0.9524,0.9524,0,0.9683,0.9669,0.967,0.9653,0.9649,0.9653,0.9638,0.9638,0.9627,0.9626,0.9624,0.9606,0.9601,0.9584,0.9574,0.9566,0.957,0.9563,0.9574,0.9571,0.9581,0.958,0.9615,0.9619,0.958,0.958,0.9581,0,0.9701,0.9703,0.9688,0.9686,0.9679,0.9676,0.9673,0.9655,0.9652,0.964,0.9641,0.9635,0.9628,0.9621,0.9606,0.9599,0.9592,0.9605,0.959,0.9595,0.9591,0.9591,0.9591,0.9607,0.9608,0.9608,0.9609,0,0.9733,0.9726,0.9721,0.9715,0.9711,0.9705,0.9697,0.9696,0.9677,0.9674,0.9669,0.9664,0.9655,0.9648,0.9638,0.963,0.9616,0.9613,0.9615,0.962,0.9626,0.9623,0.9582,0.9613,0.9612,0.9612,0.9612,0.9612,0.9758,0.976,0.9749,0.9745,0.9738,0.9731,0.973,0.9719,0.9715,0.9707,0.9696,0.9692,0.9681,0.9666,0.9659,0.9655,0.9648,0.965,0.965,0.9651,0.9654,0.9627,0.9653,0.9653,0.9653,0.9653,0.9653,0,0.9789,0.9782,0.9778,0.9769,0.9765,0.9753,0.9744,0.9742,0.9739,0.973,0.9725,0.9719,0.9712,0.9698,0.969,0.969,0.9683,0.9688,0.9688,0.9686,0.9661,0.966,0.9694,0.9694,0.9694,0.9694,0.9694,0.9694,0.9805,0.9807,0.9798,0.9796,0.9788,0.9785,0.9781,0.9774,0.9767,0.9761,0.9757,0.9747,0.9736,0.9727,0.9721,0.9716,0.9714,0.9721,0.9715,0.9692,0.9688,0.9684,0.9683,0.9721,0.9721,0.974,0.974,0.9741]}]]